This demonstration page uses our WeatherBlox Daily Observations layout. Learn more.

Left ArrowRight Arrow

39.51506, -84.39828

Hourly Observations for July 18, 2021

Temp ( °F °C ) Dew Point ( °F °C ) Humidity (%) Winds ( mph kmh ) Pressure ( in mb ) Visibility ( mi km ) Precip ( " mm )
12:15 am 00:15 Clear 68 20 N/A N/A N N/A 30.14 1021 10 16 N/A
12:35 am 00:35 Clear 68 20 68 20 100 100 N N/A 30.15 1021 10 16 N/A
12:55 am 00:55 Clear 68 20 N/A N/A N N/A 30.15 1021 10 16 N/A
1:15 am 01:15 Clear 68 20 N/A N/A N N/A 30.15 1021 10 16 0.01 0.25
1:35 am 01:35 Clear 68 20 N/A N/A N N/A 30.15 1021 10 16 0.01 0.25
1:55 am 01:55 Clear 66 19 N/A N/A N N/A 30.16 1021 10 16 0.01 0.25
2:15 am 02:15 Clear 66 19 N/A N/A N N/A 30.16 1021 10 16 N/A
2:35 am 02:35 Clear 66 19 N/A N/A N N/A 30.16 1021 10 16 N/A
2:55 am 02:55 Clear 66 19 N/A N/A N 3 6 30.16 1021 10 16 N/A
3:15 am 03:15 Clear 66 19 N/A N/A NNE 3 6 30.16 1021 10 16 N/A
3:35 am 03:35 Clear 66 19 N/A N/A NNE 3 6 30.16 1021 10 16 N/A
3:55 am 03:55 Clear 66 19 N/A N/A N N/A 30.16 1021 10 16 N/A
4:15 am 04:15 Clear 64 18 N/A N/A NNE 5 7 30.17 1022 10 16 N/A
4:35 am 04:35 Clear 64 18 N/A N/A NNE 3 6 30.17 1022 10 16 N/A
4:55 am 04:55 Clear 64 18 N/A N/A NE 3 6 30.17 1022 10 16 N/A
5:15 am 05:15 Clear 64 18 N/A N/A N N/A 30.17 1022 10 16 N/A
5:35 am 05:35 Clear 64 18 N/A N/A ENE 5 7 30.18 1022 10 16 N/A
5:55 am 05:55 Clear 64 18 N/A N/A NE 5 7 30.18 1022 10 16 N/A
6:15 am 06:15 Clear 64 18 N/A N/A ENE 5 7 30.19 1022 10 16 N/A
6:35 am 06:35 Sunny 63 17 N/A N/A N N/A 30.19 1022 10 16 N/A
6:55 am 06:55 Sunny 63 17 N/A N/A NNE 5 7 30.20 1023 10 16 N/A
7:15 am 07:15 Sunny 63 17 N/A N/A N N/A 30.20 1023 10 16 N/A
7:35 am 07:35 Sunny 64 18 N/A N/A N N/A 30.21 1023 10 16 0.01 0.25
7:55 am 07:55 Sunny 66 19 N/A N/A N 3 6 30.21 1023 10 16 0.01 0.25
8:15 am 08:15 Sunny 66 19 66 18.9 99 99 N N/A 30.21 1023 10 16 N/A
8:35 am 08:35 Sunny 67 19.6 65 18.4 93 93 N N/A 30.22 1023 10 16 N/A
8:55 am 08:55 Sunny 68 20.2 66 18.8 92 92 N 3 6 30.21 1023 10 16 N/A
9:15 am 09:15 Cloudy 70 20.9 65 18.6 87 87 NNE 3 6 30.22 1023 10 16 N/A
9:35 am 09:35 Cloudy 70 21.1 65 18.5 85 85 NE 3 6 30.22 1023 10 16 N/A
9:55 am 09:55 Mostly Cloudy 71 21.4 66 18.7 85 85 N N/A 30.21 1023 10 16 N/A
10:15 am 10:15 Partly Cloudy 73 22.5 65 18.5 78 78 NE 5 7 30.21 1023 10 16 N/A
10:35 am 10:35 Sunny 74 23.2 62 16.7 67 67 ESE 8 13 30.22 1023 10 16 N/A
10:55 am 10:55 Sunny 74 23.6 60 15.4 60 60 ESE 10 17 30.22 1023 10 16 N/A
11:15 am 11:15 Sunny 77 24.8 61 15.9 58 58 ESE 10 17 30.20 1023 10 16 N/A
11:35 am 11:35 Sunny 77 25 61 16.1 58 58 ESE 10 17 30.21 1023 10 16 N/A
11:55 am 11:55 Sunny 78 25.3 62 16.6 59 59 E 9 15 30.20 1023 10 16 0.01 0.25
12:15 pm 12:15 Sunny 78 25.6 62 16.7 58 58 SE 9 15 30.20 1023 10 16 N/A
12:35 pm 12:35 Sunny 78 25.6 62 16.5 57 57 E 7 11 30.19 1022 10 16 N/A
12:55 pm 12:55 Sunny 79 26 62 16.9 57 57 ENE 13 20 30.19 1022 10 16 N/A
1:15 pm 13:15 Sunny 79 26.2 62 16.4 55 55 E 9 15 30.18 1022 10 16 N/A
1:35 pm 13:35 Sunny 80 26.4 62 16.9 56 56 E 9 15 30.18 1022 10 16 N/A
1:55 pm 13:55 Sunny 80 26.5 64 17.5 58 58 SE 7 11 30.18 1022 10 16 N/A
2:15 pm 14:15 Partly Cloudy 80 26.7 63 17 55 55 ENE 8 13 30.17 1022 7 11 N/A
2:35 pm 14:35 Sunny 81 27 62 16.6 53 53 E 9 15 30.17 1022 10 16 N/A
2:55 pm 14:55 Sunny 81 27.1 63 17 54 54 E 6 9 30.16 1021 7 11 N/A
3:15 pm 15:15 Hazy 82 27.6 61 16.3 50 50 E 9 15 30.16 1021 7 11 N/A
3:35 pm 15:35 Sunny 82 27.8 62 16.9 52 52 ENE 9 15 30.16 1021 10 16 0.01 0.25
3:55 pm 15:55 Sunny 82 27.7 63 17 52 52 SE 8 13 30.15 1021 10 16 0.01 0.25
4:15 pm 16:15 Sunny 82 27.8 63 17.2 53 53 ENE 7 11 30.14 1021 10 16 N/A
4:35 pm 16:35 Partly Cloudy 81 27.4 63 17.4 54 54 ESE 9 15 30.14 1021 10 16 N/A
4:55 pm 16:55 Partly Cloudy 83 28.3 64 18 54 54 E 12 19 30.14 1021 10 16 N/A
5:15 pm 17:15 Partly Cloudy 82 27.7 64 17.8 55 55 ESE 6 9 30.13 1020 10 16 N/A
5:35 pm 17:35 Partly Cloudy 82 27.5 62 16.7 52 52 ENE 5 7 30.13 1020 10 16 N/A
5:55 pm 17:55 Mostly Cloudy 81 27.2 63 17.3 55 55 E 9 15 30.13 1020 10 16 N/A
6:15 pm 18:15 Partly Cloudy 81 27.2 64 17.8 57 57 ENE 7 11 30.13 1020 10 16 N/A
6:35 pm 18:35 Sunny 82 27.5 64 17.7 55 55 NE 6 9 30.12 1020 10 16 N/A
6:55 pm 18:55 Partly Cloudy 81 27.1 64 17.5 56 56 ENE 7 11 30.12 1020 10 16 N/A
7:15 pm 19:15 Partly Cloudy 81 27 64 17.7 57 57 ENE 6 9 30.12 1020 10 16 N/A
7:35 pm 19:35 Sunny 80 26.9 64 17.7 57 57 ESE 6 9 30.12 1020 10 16 N/A
7:55 pm 19:55 Sunny 79 26.3 66 18.9 64 64 N N/A 30.12 1020 10 16 N/A
8:15 pm 20:15 Sunny 78 25.8 67 19.4 68 68 E 5 7 30.12 1020 10 16 0.01 0.25
8:35 pm 20:35 Sunny 75 24 71 21.4 85 85 N 3 6 30.13 1020 10 16 0.01 0.25
8:55 pm 20:55 Sunny 73 22.9 71 21.4 91 91 N N/A 30.13 1020 10 16 0.01 0.25
9:15 pm 21:15 Clear 70 21.1 69 20.8 98 98 N N/A 30.14 1021 10 16 N/A
9:35 pm 21:35 Clear 70 20.9 69 20.7 99 99 N N/A 30.14 1021 7 11 N/A
9:55 pm 21:55 Clear 70 21 N/A N/A N N/A 30.15 1021 10 16 N/A
10:15 pm 22:15 Clear 68 20 N/A N/A N 3 6 30.15 1021 10 16 N/A
10:35 pm 22:35 Clear 68 20 68 20 100 100 NNE 3 6 30.16 1021 10 16 N/A
10:55 pm 22:55 Clear 68 20 N/A N/A N N/A 30.16 1021 10 16 N/A
11:15 pm 23:15 Clear 68 20 N/A N/A N N/A 30.16 1021 10 16 N/A
11:35 pm 23:35 Clear 68 20 N/A N/A N 3 6 30.16 1021 10 16 N/A
11:55 pm 23:55 Clear 66 19 N/A N/A N 5 7 30.17 1022 10 16 N/A

Powered by AerisWeather